Overview Statistics Trail Chart Weather Telemetry Raw packets
 

This is the latest recevied weather packets stored in our database for station/object TONGUE. If no packets are shown the sender has not sent any weather packets the latest 10 day(s).

<< 9 10 11 12 13 14 15 >>
Time Temp. Humidity Pressure Rain* Wind** Luminosity Snow
1788392403 16.67° C 78% 0 hPa - - - -
1788391804 17.22° C 75% 0 hPa - - - -
1788391203 16.67° C 77% 0 hPa - - - -
1788390603 17.78° C 73% 0 hPa - - - -
1788390008 17.22° C 77% 0 hPa - - - -
1788389403 17.22° C 81% 0 hPa - - - -
1788388803 17.22° C 85% 0 hPa - - - -
1788388204 17.22° C 91% 0 hPa - - - -
1788387603 16.67° C 93% 0 hPa - - - -
1788386403 15.56° C 100% 0 hPa - - - -
1788385807 15.56° C 100% 0 hPa - - - -
1788385203 15° C 99% 0 hPa - - - -
1788384608 14.44° C 99% 0 hPa - - - -
1788384008 15° C 100% 0 hPa - - - -
1788383403 15° C 100% 0 hPa - - - -
1788382808 15° C 100% 0 hPa - - - -
1788382203 15° C - - - - - -
1788381602 15° C 100% 0 hPa - - - -
1788381003 15° C 100% 0 hPa - - - -
1788380403 15° C 100% 0 hPa - - - -
1788379803 15° C - - - - - -
1788379219 15° C 100% 0 hPa - - - -
1788378603 15° C 100% 0 hPa - - - -
1788378002 15° C 100% 0 hPa - - - -
1788377403 15° C 100% 0 hPa - - - -

* Rain since midnight (hover to see other rain measurements)
** Current wind speed in m/s (hover to see current wind gust speed)